395P/Catalina-NEAT (2021)

Japanese version
Home page
Updated on August 15, 2020

---------------------------------------------------------------------

* Profile

Designation 395P/2020 H1
Recovery Date April 26, 2020
Magnitude 21.0 mag
Recoverer Erwin Schwab (Egelsbach, Germany), D. Abreu (European Space Agency's Optical Ground Station, Tenerife)

* Pictures

* Orbital Elements

Epoch 2021 Dec. 12.0 TT = JDT 2459560.5
T 2021 Dec. 30.46250 TT                                 Rudenko
q   4.0648923            (2000.0)            P               Q
n   0.05865859     Peri.   89.85006     +0.68740094     +0.72520553
a   6.5601682      Node   223.66374     -0.68701374     +0.63165667
e   0.3803677      Incl.    3.27621     -0.23556756     +0.27401969
P  16.8
From 214 observations 2005 May 12-2020 July 14, mean residual 0".8.

* Magnitudes Graph

        m1 = 9.5 + 5 log d + 10.0 log r

---------------------------------------------------------------------

The orbital elements are published on M.P.E.C. 2020-P19.
The magnitudes graphs are made with Comet for Windows.

---------------------------------------------------------------------

Copyright(C) Seiichi Yoshida (comet@aerith.net). All rights reserved.